TimeEDT,TemperatureF,Dew PointF,Humidity,Sea Level PressureIn,VisibilityMPH,Wind Direction,Wind SpeedMPH,Gust SpeedMPH,PrecipitationIn,Events,Conditions,WindDirDegrees,DateUTC
12:54 AM,75.9,71.1,85,30.10,10.0,SSW,3.5,-,N/A,,Partly Cloudy,200,2013-06-24 04:54:00
1:54 AM,75.0,71.1,87,30.09,10.0,Calm,Calm,-,N/A,,Partly Cloudy,0,2013-06-24 05:54:00
2:54 AM,73.9,71.1,91,30.09,10.0,Calm,Calm,-,N/A,,Clear,0,2013-06-24 06:54:00
3:54 AM,73.0,71.1,93,30.09,9.0,Calm,Calm,-,N/A,,Clear,0,2013-06-24 07:54:00
4:54 AM,72.0,70.0,93,30.09,10.0,Calm,Calm,-,N/A,,Clear,0,2013-06-24 08:54:00
5:43 AM,69.8,69.8,100,30.08,1.5,Calm,Calm,-,N/A,,Clear,0,2013-06-24 09:43:00
5:48 AM,71.6,69.8,94,30.08,0.5,Calm,Calm,-,N/A,Fog,Fog,0,2013-06-24 09:48:00
5:54 AM,71.1,69.1,93,30.09,0.5,Calm,Calm,-,N/A,Fog,Fog,0,2013-06-24 09:54:00
6:00 AM,71.6,69.8,94,30.08,1.5,Calm,Calm,-,N/A,,Clear,0,2013-06-24 10:00:00
6:02 AM,71.6,69.8,94,30.09,3.0,Calm,Calm,-,N/A,,Clear,0,2013-06-24 10:02:00
6:30 AM,71.6,69.8,94,30.09,2.0,Calm,Calm,-,N/A,,Clear,0,2013-06-24 10:30:00
6:41 AM,71.6,69.8,94,30.09,6.0,Calm,Calm,-,N/A,,Clear,0,2013-06-24 10:41:00
6:54 AM,73.0,70.0,90,30.10,10.0,Calm,Calm,-,N/A,,Clear,0,2013-06-24 10:54:00
7:54 AM,75.9,69.1,79,30.11,10.0,WSW,4.6,-,N/A,,Clear,250,2013-06-24 11:54:00
8:54 AM,80.1,70.0,71,30.11,10.0,WSW,4.6,-,N/A,,Clear,250,2013-06-24 12:54:00
9:54 AM,84.9,69.1,59,30.09,10.0,West,4.6,-,N/A,,Clear,260,2013-06-24 13:54:00
10:54 AM,87.1,69.1,55,30.10,10.0,WNW,6.9,-,N/A,,Clear,300,2013-06-24 14:54:00
11:54 AM,89.1,70.0,53,30.09,10.0,Variable,6.9,-,N/A,,Clear,0,2013-06-24 15:54:00
12:54 PM,91.0,68.0,47,30.08,10.0,WSW,6.9,-,N/A,,Partly Cloudy,250,2013-06-24 16:54:00
1:54 PM,91.9,66.9,44,30.05,10.0,WSW,10.4,-,N/A,,Partly Cloudy,240,2013-06-24 17:54:00
2:54 PM,93.0,64.9,39,30.02,10.0,West,9.2,-,N/A,,Scattered Clouds,260,2013-06-24 18:54:00
3:54 PM,91.9,66.0,42,30.00,10.0,SW,10.4,-,N/A,,Clear,230,2013-06-24 19:54:00
4:54 PM,89.1,66.9,48,30.00,10.0,WSW,11.5,-,0.00,Rain,Light Rain,250,2013-06-24 20:54:00
5:28 PM,87.8,68.0,52,29.99,10.0,SW,11.5,-,0.00,,Clear,220,2013-06-24 21:28:00
5:50 PM,82.4,66.2,58,29.99,10.0,SW,15.0,25.3,0.00,,Clear,220,2013-06-24 21:50:00
5:54 PM,82.9,66.0,56,30.00,10.0,SSW,17.3,23.0,0.00,Thunderstorm,Clear,200,2013-06-24 21:54:00
6:12 PM,82.4,66.2,58,30.00,10.0,South,8.1,-,N/A,,Clear,190,2013-06-24 22:12:00
6:54 PM,82.9,66.9,58,30.00,10.0,Calm,Calm,-,N/A,,Clear,0,2013-06-24 22:54:00
7:54 PM,81.0,64.9,58,30.01,10.0,South,10.4,-,N/A,,Clear,180,2013-06-24 23:54:00
8:54 PM,79.0,66.0,64,30.00,10.0,Calm,Calm,-,N/A,,Clear,0,2013-06-25 00:54:00
9:54 PM,75.9,66.0,71,30.02,10.0,Calm,Calm,-,N/A,,Clear,0,2013-06-25 01:54:00
10:54 PM,75.0,66.0,73,30.04,10.0,SW,4.6,-,N/A,,Clear,220,2013-06-25 02:54:00
11:54 PM,73.9,64.9,73,30.03,10.0,South,3.5,-,N/A,,Clear,180,2013-06-25 03:54:00